When you browse on this site, cookies collect data to enhance your experience and personalize the content and advertising you see.
Visit our Privacy Policy to learn more. By continuing to use the site, you agree to this use of cookies and data.
  • In Latvia
  • List of Countries
  • For 7 days
  • Water Temperature
  • Weather Map
  • Weather Widgets
  • user-avatar
    Login

    Hourly Weather Zaborze

    Today, 16 October, Wednesday

    Time Temperature Precipitation Wind Pressure Humidity
    00:00 +13°C° 0 mm 3 mps 741 mmHg 78%
    01:00 +14°C° 0 mm 2 mps 741 mmHg 76%
    02:00 +13°C° 0 mm 3 mps 741 mmHg 76%
    03:00 +12°C° 0 mm 3 mps 741 mmHg 76%
    04:00 +12°C° 0 mm 3 mps 741 mmHg 75%
    05:00 +12°C° 0 mm 4 mps 741 mmHg 74%
    06:00 +13°C° 0 mm 4 mps 741 mmHg 73%
    07:00 +13°C° 0 mm 4 mps 741 mmHg 71%
    08:00 +15°C° 0 mm 5 mps 741 mmHg 67%
    09:00 +17°C° 0 mm 6 mps 741 mmHg 64%
    10:00 +18°C° 0 mm 7 mps 741 mmHg 60%
    11:00 +20°C° 0 mm 7 mps 742 mmHg 61%
    12:00 +20°C° 0 mm 7 mps 742 mmHg 61%
    13:00 +21°C° 0 mm 6 mps 742 mmHg 60%
    14:00 +19°C° 0 mm 6 mps 742 mmHg 65%
    15:00 +17°C° 0 mm 6 mps 743 mmHg 71%
    16:00 +16°C° 0 mm 6 mps 743 mmHg 76%
    17:00 +15°C° 0 mm 6 mps 743 mmHg 77%
    18:00 +14°C° 0 mm 5 mps 744 mmHg 78%
    19:00 +13°C° 0 mm 4 mps 744 mmHg 79%
    20:00 +12°C° 0 mm 4 mps 744 mmHg 77%
    21:00 +12°C° 0 mm 4 mps 745 mmHg 75%
    22:00 +12°C° 0 mm 5 mps 745 mmHg 73%
    23:00 +11°C° 0 mm 4 mps 745 mmHg 73%

    Tomorrow, 17 October, Thursday

    Time Temperature Precipitation Wind Pressure Humidity
    00:00 +11°C° 0 mm 4 mps 746 mmHg 73%
    01:00 +11°C° 0 mm 4 mps 746 mmHg 73%
    02:00 +10°C° 0 mm 4 mps 746 mmHg 74%
    03:00 +10°C° 0 mm 4 mps 746 mmHg 74%
    04:00 +10°C° 0 mm 4 mps 746 mmHg 75%
    05:00 +10°C° 0 mm 4 mps 746 mmHg 75%
    06:00 +10°C° 0 mm 4 mps 746 mmHg 76%
    07:00 +10°C° 0 mm 4 mps 746 mmHg 77%
    08:00 +12°C° 0 mm 4 mps 747 mmHg 70%
    09:00 +14°C° 0 mm 4 mps 747 mmHg 63%
    10:00 +17°C° 0 mm 4 mps 747 mmHg 56%
    11:00 +18°C° 0 mm 4 mps 747 mmHg 53%
    12:00 +18°C° 0 mm 4 mps 747 mmHg 50%
    13:00 +19°C° 0 mm 4 mps 747 mmHg 48%
    14:00 +19°C° 0 mm 3 mps 747 mmHg 51%
    15:00 +18°C° 0 mm 3 mps 747 mmHg 53%
    16:00 +17°C° 0 mm 2 mps 746 mmHg 56%
    17:00 +17°C° 0 mm 2 mps 746 mmHg 59%
    18:00 +16°C° 0 mm 3 mps 746 mmHg 62%
    19:00 +14°C° 0 mm 3 mps 746 mmHg 64%
    20:00 +13°C° 0 mm 3 mps 747 mmHg 65%
    21:00 +13°C° 0 mm 3 mps 747 mmHg 65%
    22:00 +13°C° 0 mm 3 mps 747 mmHg 65%
    23:00 +12°C° 0 mm 3 mps 747 mmHg 66%

    Day after tomorrow, 18 October, Friday

    Time Temperature Precipitation Wind Pressure Humidity
    00:00 +12°C° 0 mm 3 mps 747 mmHg 66%
    01:00 +13°C° 0 mm 2 mps 747 mmHg 66%
    02:00 +12°C° 0 mm 2 mps 747 mmHg 69%
    03:00 +12°C° 0 mm 2 mps 746 mmHg 71%
    04:00 +12°C° 0 mm 2 mps 746 mmHg 73%
    05:00 +12°C° 0 mm 2 mps 746 mmHg 74%
    06:00 +12°C° 0 mm 2 mps 746 mmHg 75%
    07:00 +12°C° 0 mm 2 mps 747 mmHg 76%
    08:00 +14°C° 0 mm 2 mps 746 mmHg 71%
    09:00 +15°C° 0 mm 2 mps 746 mmHg 66%
    10:00 +17°C° 0 mm 3 mps 746 mmHg 61%
    11:00 +18°C° 0 mm 3 mps 746 mmHg 59%
    12:00 +19°C° 0 mm 3 mps 746 mmHg 57%
    13:00 +20°C° 0 mm 3 mps 745 mmHg 55%
    14:00 +19°C° 0 mm 2 mps 745 mmHg 57%
    15:00 +18°C° 0 mm 2 mps 745 mmHg 60%
    16:00 +19°C° 0 mm 1 mps 745 mmHg 63%
    17:00 +17°C° 0 mm 2 mps 745 mmHg 64%
    18:00 +16°C° 0 mm 2 mps 745 mmHg 66%
    19:00 +15°C° 0 mm 2 mps 745 mmHg 68%
    20:00 +15°C° 0 mm 2 mps 745 mmHg 69%
    21:00 +15°C° 0 mm 2 mps 745 mmHg 70%
    22:00 +14°C° 0 mm 2 mps 745 mmHg 71%
    23:00 +14°C° 0 mm 1 mps 745 mmHg 71%

    19 October, Saturday

    Time Temperature Precipitation Wind Pressure Humidity
    00:00 +14°C° 0 mm 1 mps 744 mmHg 71%
    01:00 +13°C° 0 mm 1 mps 744 mmHg 71%
    02:00 +13°C° 0 mm 1 mps 744 mmHg 70%
    03:00 +13°C° 0 mm 1 mps 744 mmHg 70%
    04:00 +13°C° 0 mm 1 mps 744 mmHg 70%
    05:00 +13°C° 0 mm 1 mps 744 mmHg 70%
    06:00 +13°C° 0 mm 1 mps 744 mmHg 71%
    07:00 +13°C° 0 mm 1 mps 744 mmHg 71%
    08:00 +15°C° 0 mm 1 mps 744 mmHg 67%
    09:00 +16°C° 0 mm 1 mps 744 mmHg 62%
    10:00 +19°C° 0 mm 1 mps 745 mmHg 58%
    11:00 +20°C° 0 mm 1 mps 745 mmHg 56%
    12:00 +19°C° 0 mm 2 mps 744 mmHg 55%
    13:00 +20°C° 0 mm 2 mps 744 mmHg 53%
    14:00 +19°C° 0 mm 2 mps 744 mmHg 56%
    15:00 +18°C° 0 mm 2 mps 744 mmHg 60%
    16:00 +19°C° 0 mm 1 mps 744 mmHg 63%
    17:00 +17°C° 0 mm 2 mps 744 mmHg 66%
    18:00 +16°C° 0 mm 2 mps 744 mmHg 69%
    19:00 +15°C° 0 mm 2 mps 744 mmHg 73%
    20:00 +14°C° 0 mm 2 mps 745 mmHg 74%
    21:00 +14°C° 0 mm 2 mps 745 mmHg 75%
    22:00 +14°C° 0 mm 2 mps 745 mmHg 77%
    23:00 +13°C° 0 mm 2 mps 745 mmHg 78%

    20 October, Sunday

    Time Temperature Precipitation Wind Pressure Humidity
    00:00 +13°C° 0 mm 2 mps 744 mmHg 79%
    01:00 +13°C° 0 mm 2 mps 744 mmHg 80%
    02:00 +13°C° 0 mm 2 mps 744 mmHg 81%
    03:00 +13°C° 0 mm 2 mps 744 mmHg 82%
    04:00 +12°C° 0 mm 3 mps 744 mmHg 83%
    05:00 +12°C° 0 mm 3 mps 744 mmHg 83%
    06:00 +12°C° 0 mm 3 mps 744 mmHg 83%
    07:00 +12°C° 0 mm 3 mps 744 mmHg 83%
    08:00 +14°C° 0 mm 3 mps 744 mmHg 76%
    09:00 +16°C° 0 mm 3 mps 744 mmHg 68%
    10:00 +18°C° 0 mm 3 mps 744 mmHg 60%
    11:00 +19°C° 0 mm 3 mps 744 mmHg 56%
    12:00 +20°C° 0 mm 3 mps 744 mmHg 53%
    13:00 +21°C° 0 mm 3 mps 744 mmHg 49%
    14:00 +20°C° 0 mm 3 mps 744 mmHg 54%
    15:00 +19°C° 0 mm 3 mps 744 mmHg 59%
    16:00 +18°C° 0 mm 3 mps 744 mmHg 64%
    17:00 +17°C° 0 mm 3 mps 745 mmHg 68%
    18:00 +16°C° 0 mm 3 mps 745 mmHg 72%
    19:00 +15°C° 0 mm 2 mps 745 mmHg 76%
    20:00 +15°C° 0 mm 2 mps 746 mmHg 78%
    21:00 +14°C° 0 mm 2 mps 746 mmHg 81%
    22:00 +14°C° 0 mm 2 mps 747 mmHg 84%
    23:00 +13°C° 0 mm 2 mps 747 mmHg 86%

    21 October, Monday

    Time Temperature Precipitation Wind Pressure Humidity
    00:00 +13°C° 0 mm 2 mps 747 mmHg 89%
    01:00 +12°C° 0 mm 3 mps 748 mmHg 91%
    02:00 +12°C° 0 mm 2 mps 748 mmHg 92%
    03:00 +12°C° 0 mm 2 mps 748 mmHg 93%
    04:00 +12°C° 0 mm 2 mps 749 mmHg 94%
    05:00 +12°C° 0 mm 2 mps 749 mmHg 94%
    06:00 +12°C° 0 mm 2 mps 750 mmHg 94%
    07:00 +12°C° 0 mm 2 mps 750 mmHg 95%
    08:00 +13°C° 0 mm 2 mps 750 mmHg 88%
    09:00 +14°C° 0 mm 2 mps 751 mmHg 81%
    10:00 +16°C° 0 mm 2 mps 751 mmHg 75%
    11:00 +17°C° 0 mm 2 mps 751 mmHg 72%
    12:00 +17°C° 0 mm 2 mps 751 mmHg 68%
    13:00 +18°C° 0 mm 2 mps 751 mmHg 65%
    14:00 +18°C° 0 mm 2 mps 751 mmHg 67%
    15:00 +17°C° 0 mm 2 mps 751 mmHg 69%
    16:00 +17°C° 0 mm 2 mps 751 mmHg 72%
    17:00 +16°C° 0 mm 2 mps 751 mmHg 75%
    18:00 +15°C° 0 mm 2 mps 752 mmHg 78%
    19:00 +14°C° 0 mm 2 mps 752 mmHg 82%
    20:00 +13°C° 0 mm 2 mps 752 mmHg 84%
    21:00 +13°C° 0 mm 2 mps 752 mmHg 87%
    22:00 +12°C° 0 mm 2 mps 752 mmHg 89%
    23:00 +12°C° 0 mm 2 mps 752 mmHg 90%
    Show more